Regional Weather Roundup
Issued by NWS

Home | Current Version | Previous Version | Text Only | Print | Product List | Glossary Off
Versions: 1 2 3 4 5 6 7 8 9 10 11 12 13 14 15 16 17 18 19 20 21 22 23 24 25 26 27 28 29 30 31 32 33 34 35 36 37 38 39 40 41 42 43 44 45 46 47 48 49 50

166
ASUS45 KSLC 282110
RWRUT

UTAH REGIONAL WEATHER ROUNDUP
NATIONAL WEATHER SERVICE SALT LAKE CITY UT
300 PM MDT THU APR 28 2016

UTZ001>011-023>025-282200-

NORTHERN UTAH

CITY           SKY/WX    TMP DP  RH WIND       PRES   REMARKS
BRIGHAM CITY   PTSUNNY   57  29  34 NE16G25   29.77R
HILL AFB       PTSUNNY   47  34  60 E20G33    29.78R
LOGAN          PTSUNNY   55  31  39 E18       29.78R
OGDEN          PTSUNNY   52  34  50 E15G23    29.76S
PROVO AIRPORT  PTSUNNY   54  43  66 NW13      29.72R
SALT LAKE CITY PTSUNNY   56  34  43 VRB5      29.74R
VERNAL         CLOUDY    47  33  58 NE15      29.80S
WENDOVER         N/A     52  36  54 SE5       29.80R
HEBER CITY     CLOUDY    46  34  61 N21       29.75S

$$

UTZ012>022-026-027-282200-

SOUTHERN/CENTRAL UTAH

CITY           SKY/WX    TMP DP  RH WIND       PRES   REMARKS
BLANDING       PTSUNNY   48  32  53 SW8G16    29.83R
BRYCE CANYON   CLOUDY    39  31  72 SE9       29.75R WCI  33
CEDAR CITY     CLOUDY    50  35  56 W10       29.69R
DELTA          PTSUNNY   52  41  66 NW16      29.70S
HANKSVILLE     PTSUNNY   52  41  66 NE3       29.75S
MILFORD        PTSUNNY   49  39  68 E14       29.72R
MOAB/CYNLANDS    N/A     50  41  71 N6        29.74R
PRICE          CLOUDY    45  39  79 S10       29.77R
ST GEORGE        N/A     61  37  41 W7        29.71R
KANAB          PTSUNNY   52  41  66 CALM      29.77S

$$

REGIONAL REPORTS     COLORADO/ARIZONA

CITY           SKY/WX    TMP DP  RH WIND       PRES   REMARKS
CRAIG, CO      CLOUDY    46  37  71 NW3       29.80S
GRAND JUNCTION CLOUDY    53  38  56 NW10      29.75R
RIFLE          CLOUDY    46  35  65 W14       29.77R
MONTROSE       CLOUDY    54  39  57 N13       29.72S
CORTEZ         CLOUDY    53  28  38 E12       29.74F
PAGE, AZ         N/A     54  39  57 VRB7      29.71S
GRAND CANYON   CLOUDY    42  36  79 S9        29.78S
KINGMAN        CLOUDY    54  42  64 SW8       29.76R
FLAGSTAFF      PTSUNNY   43  27  53 SW18G28   29.79R

$$

REGIONAL REPORTS    NEVADA/IDAHO/WYOMING

CITY           SKY/WX    TMP DP  RH WIND       PRES   REMARKS
LAS VEGAS, NV  PTSUNNY   66  42  41 E10       29.65S
ELY            CLOUDY    43  37  79 N29G35    29.79R
ELKO           PTSUNNY   55  33  43 NE14      29.82S
POCATELLO, ID  CLOUDY    61  29  29 N9G16     29.79S
BURLEY         CLOUDY    58  36  43 NW10G18   29.80S
EVANSTON, WY   CLOUDY    37  27  67 E25G33    29.84R WCI  25
ROCK SPRINGS   LGT SNOW  32  28  85 NE24      29.89S FOG     WCI  19
KEMMERER       LGT SNOW  34  30  86 E21       29.89R WCI  22

$$




USA.gov is the U.S. government's official web portal to all federal, state and local government web resources and services.